DW8343 Weather Reports


time (UTC)temp
C
wind
direction
speed
KPH
gust
KPH
rain 1hr
cm
rain 24hr
cm
rain mn
cm
humidity
%
barometer
mb
20260508162002 23 126 4.8 11.3 0.00 0.00 0.00 53 1013.2
20260508161458 23 279 3.2 12.9 0.00 0.00 0.00 51 1013.2
20260508160955 23 259 11.3 16.1 0.00 0.00 0.00 49 1013.3
20260508160454 22 231 6.4 20.9 0.00 0.00 0.00 50 1013.4
20260508155950 22 244 4.8 22.5 0.00 0.00 0.00 51 1013.4
20260508155447 23 156 6.4 16.1 0.00 0.00 0.00 49 1013.4
20260508154944 23 258 9.7 16.1 0.00 0.00 0.00 48 1013.5
20260508154442 22 257 4.8 12.9 0.00 0.00 0.00 49 1013.6
20260508153938 22 146 3.2 16.1 0.00 0.00 0.00 51 1013.4
20260508153435 22 291 6.4 25.7 0.00 0.00 0.00 51 1013.5
20260508152931 22 321 4.8 9.7 0.00 0.00 0.00 52 1013.8
20260508152428 22 234 6.4 17.7 0.00 0.00 0.00 51 1013.8
20260508151925 21 212 6.4 20.9 0.00 0.00 0.00 53 1013.9
20260508151422 22 179 4.8 12.9 0.00 0.00 0.00 52 1013.9
20260508150918 21 341 6.4 11.3 0.00 0.00 0.00 52 1014.1
20260508150415 21 221 8.0 20.9 0.00 0.00 0.00 54 1014.0
20260508145911 21 95 3.2 6.4 0.00 0.00 0.00 55 1014.1
20260508145407 21 258 3.2 6.4 0.00 0.00 0.00 55 1014.2
20260508144904 21 226 4.8 9.7 0.00 0.00 0.00 55 1014.2
20260508144402 21 21 4.8 6.4 0.00 0.00 0.00 57 1014.1
20260508143859 21 54 1.6 12.9 0.00 0.00 0.00 57 1014.1
20260508143356 20 222 4.8 11.3 0.00 0.00 0.00 57 1014.3
20260508142853 20 188 3.2 12.9 0.00 0.00 0.00 57 1014.2
20260508142350 20 308 3.2 11.3 0.00 0.00 0.00 58 1014.2
20260508141846 20 168 6.4 11.3 0.00 0.00 0.00 58 1014.1
20260508141343 20 306 3.2 9.7 0.00 0.00 0.00 58 1014.1
20260508140841 20 214 4.8 9.7 0.00 0.00 0.00 59 1014.3
20260508140338 19 286 4.8 12.9 0.00 0.00 0.00 59 1014.2
20260508135833 19 243 3.2 4.8 0.00 0.00 0.00 60 1014.3
20260508135330 18 128 4.8 12.9 0.00 0.00 0.00 60 1014.2
20260508134826 18 104 1.6 9.7 0.00 0.00 0.00 61 1014.3
20260508134323 18 224 8.0 12.9 0.00 0.00 0.00 63 1014.5
20260508133819 18 225 3.2 12.9 0.00 0.00 0.00 64 1014.5
20260508133318 18 149 1.6 9.7 0.00 0.00 0.00 65 1014.5
20260508132814 18 192 3.2 9.7 0.00 0.00 0.00 65 1014.5
20260508132312 17 202 1.6 12.9 0.00 0.00 0.00 65 1014.4
20260508131808 17 235 3.2 6.4 0.00 0.00 0.00 65 1014.7
20260508131304 17 210 3.2 9.7 0.00 0.00 0.00 66 1014.5
20260508130800 17 185 6.4 14.5 0.00 0.00 0.00 67 1014.6
20260508130258 16 274 4.8 4.8 0.00 0.00 0.00 69 1014.4
20260508125753 16 295 3.2 9.7 0.00 0.00 0.00 71 1014.5
20260508125249 16 222 0.0 3.2 0.00 0.00 0.00 71 1014.6
20260508124748 16 251 3.2 4.8 0.00 0.00 0.00 72 1014.6
20260508124244 15 347 3.2 4.8 0.00 0.00 0.00 73 1014.4
20260508123743 15 238 3.2 9.7 0.00 0.00 0.00 73 1014.5
20260508123240 15 226 4.8 6.4 0.00 0.00 0.00 74 1014.4
20260508122737 15 259 1.6 3.2 0.00 0.00 0.00 74 1014.4
20260508122234 15 253 1.6 3.2 0.00 0.00 0.00 75 1014.3
20260508121731 15 48 1.6 3.2 0.00 0.00 0.00 75 1014.4
20260508121229 15 349 1.6 6.4 0.00 0.00 0.00 75 1014.3
20260508120726 15 249 1.6 3.2 0.00 0.00 0.00 75 1014.3
20260508120225 15 251 4.8 6.4 0.00 0.00 0.00 75 1014.4
20260508115721 14 179 1.6 6.4 0.00 0.00 0.00 76 1014.4
20260508115219 14 284 3.2 4.8 0.00 0.00 0.00 76 1014.1
20260508114715 14 207 3.2 3.2 0.00 0.00 0.00 76 1014.3
20260508114212 14 200 1.6 3.2 0.00 0.00 0.00 76 1014.2
20260508113709 15 275 0.0 3.2 0.00 0.00 0.00 76 1014.3
20260508113207 15 35 1.6 4.8 0.00 0.00 0.00 76 1014.3
20260508112703 15 344 0.0 4.8 0.00 0.00 0.00 76 1014.2
20260508112200 15 72 1.6 11.3 0.00 0.00 0.00 75 1014.4
20260508111657 15 235 4.8 6.4 0.00 0.00 0.00 75 1014.1
20260508111154 15 240 3.2 6.4 0.00 0.00 0.00 75 1014.3
20260508110652 15 3 3.2 3.2 0.00 0.00 0.00 75 1014.2
20260508110148 15 227 1.6 4.8 0.00 0.00 0.00 74 1014.2
20260508105643 15 237 1.6 6.4 0.00 0.00 0.00 74 1014.2
20260508105140 15 266 4.8 6.4 0.00 0.00 0.00 74 1014.0
20260508104638 15 270 0.0 3.2 0.00 0.00 0.00 74 1014.0
20260508104134 15 238 0.0 3.2 0.00 0.00 0.00 74 1014.2
20260508103631 15 255 1.6 4.8 0.00 0.00 0.00 74 1013.9
20260508103129 15 100 1.6 4.8 0.00 0.00 0.00 73 1014.2
20260508102626 15 345 1.6 3.2 0.00 0.00 0.00 74 1014.0
20260508102124 15 70 1.6 6.4 0.00 0.00 0.00 73 1013.8
20260508101621 15 151 3.2 4.8 0.00 0.00 0.00 73 1013.9
20260508101118 15 248 1.6 4.8 0.00 0.00 0.00 72 1013.8
20260508100616 15 261 1.6 3.2 0.00 0.00 0.00 73 1013.8
20260508100114 15 275 1.6 3.2 0.00 0.00 0.00 73 1013.7
20260508095610 15 332 0.0 9.7 0.00 0.00 0.00 72 1013.9
20260508095107 15 298 1.6 1.6 0.00 0.00 0.00 72 1013.8
20260508094604 15 86 0.0 3.2 0.00 0.00 0.00 72 1013.7
20260508094100 15 223 4.8 4.8 0.00 0.00 0.00 72 1014.0
20260508093558 15 304 0.0 4.8 0.00 0.00 0.00 72 1013.8
20260508093056 15 198 4.8 6.4 0.00 0.00 0.00 73 1013.8
20260508092552 15 94 1.6 4.8 0.00 0.00 0.00 73 1013.9
20260508092051 15 11 0.0 1.6 0.00 0.00 0.00 73 1013.7
20260508091548 15 258 3.2 4.8 0.00 0.00 0.00 73 1013.7
20260508091044 15 98 1.6 3.2 0.00 0.00 0.00 72 1013.7
20260508090543 15 202 0.0 3.2 0.00 0.00 0.00 72 1013.8
20260508090039 15 34 0.0 1.6 0.00 0.00 0.00 72 1013.8
20260508085535 16 247 0.0 1.6 0.00 0.00 0.00 71 1013.9
20260508085033 16 215 0.0 1.6 0.00 0.00 0.00 70 1013.9
20260508084530 16 265 3.2 11.3 0.00 0.00 0.00 70 1013.7
20260508084027 16 258 1.6 6.4 0.00 0.00 0.00 70 1013.8
20260508083524 16 233 1.6 6.4 0.00 0.00 0.00 70 1013.9
20260508083020 16 253 3.2 6.4 0.00 0.00 0.00 69 1013.9
20260508082516 16 70 3.2 4.8 0.00 0.00 0.00 69 1014.0
20260508082014 16 199 4.8 4.8 0.00 0.00 0.00 69 1013.8
20260508081512 16 184 1.6 11.3 0.00 0.00 0.00 68 1014.0
20260508081007 16 154 3.2 4.8 0.00 0.00 0.00 68 1014.1
20260508080506 16 187 1.6 11.3 0.00 0.00 0.00 68 1014.0
20260508080002 15 44 1.6 4.8 0.00 0.00 0.00 68 1014.0
20260508075459 16 269 3.2 4.8 0.00 0.00 0.00 68 1014.1
20260508074957 16 346 1.6 4.8 0.00 0.00 0.00 68 1014.3
20260508074454 16 266 4.8 4.8 0.00 0.00 0.00 67 1014.3
20260508073951 16 270 3.2 4.8 0.00 0.00 0.00 67 1014.2
20260508073448 16 256 1.6 6.4 0.00 0.00 0.00 66 1014.4
20260508072945 16 301 1.6 4.8 0.00 0.00 0.00 66 1014.6
20260508072441 16 334 1.6 6.4 0.00 0.00 0.00 65 1014.5
20260508071939 16 72 1.6 9.7 0.00 0.00 0.00 65 1014.6
20260508071437 16 176 3.2 9.7 0.00 0.00 0.00 65 1014.7
20260508070934 16 87 3.2 6.4 0.00 0.00 0.00 64 1014.7
20260508070432 16 173 6.4 9.7 0.00 0.00 0.00 63 1014.6
20260508065930 16 114 6.4 11.3 0.00 0.00 0.00 62 1014.7
20260508065422 16 296 1.6 11.3 0.00 0.00 0.00 62 1014.8
20260508064920 16 330 1.6 9.7 0.00 0.00 0.00 61 1014.9
20260508064417 17 321 3.2 11.3 0.00 0.00 0.00 60 1014.9
20260508063915 17 241 4.8 9.7 0.00 0.00 0.00 58 1015.1
20260508063412 17 278 4.8 6.4 0.00 0.00 0.00 57 1015.0
20260508062909 17 39 6.4 9.7 0.00 0.00 0.00 56 1015.0
20260508062407 17 135 6.4 9.7 0.00 0.00 0.00 55 1015.0
20260508061904 17 234 3.2 6.4 0.00 0.00 0.00 54 1014.9
20260508061402 17 214 1.6 3.2 0.00 0.00 0.00 53 1014.9
20260508060857 17 266 1.6 11.3 0.00 0.00 0.00 52 1015.1
20260508060355 17 257 3.2 14.5 0.00 0.00 0.00 52 1015.1
20260508055850 17 257 1.6 3.2 0.00 0.00 0.00 52 1015.0
20260508055348 17 246 1.6 6.4 0.00 0.00 0.00 52 1015.3
20260508054844 17 264 3.2 9.7 0.00 0.00 0.00 52 1015.1
20260508054342 17 326 4.8 6.4 0.00 0.00 0.00 52 1015.1
20260508053838 17 219 3.2 4.8 0.00 0.00 0.00 52 1015.0
20260508053336 17 323 1.6 12.9 0.00 0.00 0.00 52 1015.0
20260508052833 17 261 0.0 3.2 0.00 0.00 0.00 52 1015.1
20260508052330 17 277 1.6 4.8 0.00 0.00 0.00 52 1015.0
20260508051826 17 302 0.0 3.2 0.00 0.00 0.00 52 1014.9
20260508051322 17 315 4.8 9.7 0.00 0.00 0.00 52 1015.1
20260508050818 16 278 1.6 3.2 0.00 0.00 0.00 54 1015.1
20260508050316 17 321 1.6 3.2 0.00 0.00 0.00 54 1015.0
20260508045811 16 259 1.6 1.6 0.00 0.00 0.00 54 1015.2
20260508045309 16 179 0.0 1.6 0.00 0.00 0.00 55 1015.1
20260508044807 16 243 0.0 3.2 0.00 0.00 0.00 55 1015.3
20260508044303 16 245 0.0 1.6 0.00 0.00 0.00 55 1015.1
20260508043759 16 160 1.6 3.2 0.00 0.00 0.00 54 1015.2
20260508043257 16 269 1.6 1.6 0.00 0.00 0.00 54 1015.3
20260508042753 16 321 0.0 1.6 0.00 0.00 0.00 54 1015.5
20260508042251 16 186 0.0 1.6 0.00 0.00 0.00 54 1015.3
20260508041747 16 155 0.0 1.6 0.00 0.00 0.00 54 1015.7
20260508041244 16 219 0.0 1.6 0.00 0.00 0.00 55 1015.5
20260508040740 16 225 0.0 0.0 0.00 0.00 0.00 54 1015.5
20260508040238 16 153 0.0 0.0 0.00 0.00 0.00 53 1015.5
20260508035735 16 231 0.0 1.6 0.00 0.00 0.00 52 1015.3
20260508035232 16 296 0.0 0.0 0.00 0.00 0.00 51 1015.5
20260508034729 16 296 0.0 1.6 0.00 0.00 0.00 51 1015.5
20260508034226 17 235 1.6 1.6 0.00 0.00 0.00 50 1015.5
20260508033723 17 242 0.0 0.0 0.00 0.00 0.00 48 1015.5
20260508033222 17 162 0.0 1.6 0.00 0.00 0.00 47 1015.5
20260508032719 17 160 0.0 0.0 0.00 0.00 0.00 47 1015.4
20260508032216 17 246 0.0 3.2 0.00 0.00 0.00 46 1015.4
20260508031712 18 298 0.0 3.2 0.00 0.00 0.00 46 1015.4
20260508031209 18 22 0.0 1.6 0.00 0.00 0.00 45 1015.5
20260508030705 18 66 0.0 0.0 0.00 0.00 0.00 45 1015.5
20260508030203 18 254 0.0 1.6 0.00 0.00 0.00 45 1015.5
20260508025659 18 219 1.6 3.2 0.00 0.00 0.00 44 1015.2
20260508025156 18 262 0.0 1.6 0.00 0.00 0.00 44 1015.4
20260508024652 17 180 0.0 0.0 0.00 0.00 0.00 46 1015.2
20260508024149 18 209 0.0 0.0 0.00 0.00 0.00 47 1015.2
20260508023645 18 213 0.0 0.0 0.00 0.00 0.00 48 1015.1
20260508023143 18 181 0.0 0.0 0.00 0.00 0.00 46 1015.0
20260508022639 19 208 0.0 1.6 0.00 0.00 0.00 42 1015.0
20260508022136 19 283 0.0 1.6 0.00 0.00 0.00 42 1015.1
20260508021632 19 256 0.0 1.6 0.00 0.00 0.00 42 1015.3
20260508021127 20 189 0.0 1.6 0.00 0.00 0.00 40 1015.1
20260508020626 20 261 0.0 0.0 0.00 0.00 0.00 40 1015.1
20260508020123 20 169 0.0 0.0 0.00 0.00 0.00 40 1015.1
20260508015620 20 169 0.0 3.2 0.00 0.00 0.00 40 1015.0
20260508015117 20 222 0.0 1.6 0.00 0.00 0.00 40 1014.9
20260508014613 20 224 0.0 0.0 0.00 0.00 0.00 40 1014.9
20260508014110 20 159 0.0 1.6 0.00 0.00 0.00 39 1014.9
20260508013606 20 292 1.6 1.6 0.00 0.00 0.00 38 1014.9
20260508013103 21 14 0.0 0.0 0.00 0.00 0.00 38 1014.7
20260508012601 21 266 1.6 3.2 0.00 0.00 0.00 37 1015.0
20260508012058 21 196 1.6 3.2 0.00 0.00 0.00 37 1015.0
20260508011556 21 145 1.6 4.8 0.00 0.00 0.00 37 1014.7
20260508011053 22 321 1.6 3.2 0.00 0.00 0.00 36 1014.9
20260508010549 22 175 0.0 3.2 0.00 0.00 0.00 36 1014.6
20260508010047 22 174 1.6 3.2 0.00 0.00 0.00 36 1014.6
20260508005543 22 272 1.6 4.8 0.00 0.00 0.00 36 1014.7
20260508005034 22 300 1.6 3.2 0.00 0.00 0.00 35 1014.4
20260508004530 22 185 1.6 3.2 0.00 0.00 0.00 34 1014.4
20260508004027 22 71 1.6 1.6 0.00 0.00 0.00 33 1014.5
20260508003524 23 223 1.6 4.8 0.00 0.00 0.00 33 1014.4
20260508003022 23 305 0.0 3.2 0.00 0.00 0.00 33 1014.3
20260508002517 23 169 1.6 4.8 0.00 0.00 0.00 32 1014.3
20260508002015 23 246 1.6 3.2 0.00 0.00 0.00 32 1014.5
20260508001511 23 230 0.0 4.8 0.00 0.00 0.00 32 1014.5
20260508001007 24 105 1.6 4.8 0.00 0.00 0.00 31 1014.4
20260508000502 24 8 0.0 0.0 0.00 0.00 0.00 31 1014.4
20260507235959 24 298 1.6 4.8 0.00 0.00 0.00 31 1014.6
20260507235451 24 61 1.6 3.2 0.00 0.00 0.00 32 1014.4
20260507234948 25 245 3.2 3.2 0.00 0.00 0.00 30 1014.4
20260507234445 25 56 1.6 3.2 0.00 0.00 0.00 32 1014.7
20260507233941 25 221 1.6 3.2 0.00 0.00 0.00 30 1014.6
20260507233438 24 92 1.6 4.8 0.00 0.00 0.00 31 1014.6
20260507232937 25 186 4.8 9.7 0.00 0.00 0.00 30 1014.8
20260507232432 25 250 1.6 3.2 0.00 0.00 0.00 30 1014.8
20260507231929 25 141 0.0 4.8 0.00 0.00 0.00 30 1014.9
20260507231420 25 194 0.0 3.2 0.00 0.00 0.00 31 1015.1
20260507230918 24 245 0.0 3.2 0.00 0.00 0.00 31 1014.9
20260507230415 25 18 1.6 6.4 0.00 0.00 0.00 31 1015.0
20260507225914 25 256 4.8 6.4 0.00 0.00 0.00 31 1015.1
20260507225411 25 22 4.8 9.7 0.00 0.00 0.00 30 1015.0
20260507224907 25 8 0.0 3.2 0.00 0.00 0.00 29 1015.3
20260507224403 25 23 0.0 1.6 0.00 0.00 0.00 29 1015.0
20260507223900 25 33 0.0 1.6 0.00 0.00 0.00 28 1015.2
20260507223357 25 129 1.6 4.8 0.00 0.00 0.00 27 1015.1
20260507222854 25 58 3.2 4.8 0.00 0.00 0.00 29 1015.0
20260507222350 25 240 3.2 11.3 0.00 0.00 0.00 27 1015.3
20260507221847 26 215 0.0 1.6 0.00 0.00 0.00 28 1015.2
20260507221343 25 258 3.2 4.8 0.00 0.00 0.00 27 1015.4
20260507220839 25 267 3.2 3.2 0.00 0.00 0.00 27 1015.4
20260507220338 26 15 0.0 3.2 0.00 0.00 0.00 29 1015.4
20260507215833 25 344 1.6 11.3 0.00 0.00 0.00 29 1015.4
20260507215330 26 205 3.2 6.4 0.00 0.00 0.00 28 1015.2
20260507214827 25 20 1.6 3.2 0.00 0.00 0.00 29 1015.3
20260507214325 25 302 1.6 11.3 0.00 0.00 0.00 29 1015.5
20260507213820 26 126 3.2 4.8 0.00 0.00 0.00 26 1015.5
20260507213318 26 50 0.0 3.2 0.00 0.00 0.00 30 1015.6
20260507212814 25 224 3.2 3.2 0.00 0.00 0.00 29 1015.7
20260507212310 25 226 1.6 6.4 0.00 0.00 0.00 28 1015.6
20260507211807 25 236 6.4 11.3 0.00 0.00 0.00 28 1015.9
20260507211304 25 221 1.6 11.3 0.00 0.00 0.00 30 1015.9
20260507210801 25 225 3.2 4.8 0.00 0.00 0.00 29 1015.9
20260507210257 25 223 3.2 4.8 0.00 0.00 0.00 29 1015.9
20260507205753 25 220 1.6 4.8 0.00 0.00 0.00 30 1015.8
20260507205251 26 348 0.0 3.2 0.00 0.00 0.00 28 1016.2
20260507204747 25 221 0.0 3.2 0.00 0.00 0.00 32 1016.2
20260507204245 24 136 1.6 3.2 0.00 0.00 0.00 32 1016.3
20260507203742 25 220 4.8 6.4 0.00 0.00 0.00 33 1016.4
20260507203240 24 274 1.6 4.8 0.00 0.00 0.00 31 1016.7
20260507202735 24 232 3.2 4.8 0.00 0.00 0.00 31 1016.8
20260507202226 25 208 3.2 6.4 0.00 0.00 0.00 31 1016.7
20260507201720 23 49 3.2 4.8 0.00 0.00 0.00 33 1016.9
20260507201217 23 222 3.2 4.8 0.00 0.00 0.00 32 1017.0
20260507200708 23 91 3.2 4.8 0.00 0.00 0.00 31 1017.0
20260507200205 23 52 0.0 4.8 0.00 0.00 0.00 34 1017.1
20260507195701 23 92 3.2 6.4 0.00 0.00 0.00 32 1017.3
20260507195158 23 40 1.6 11.3 0.00 0.00 0.00 35 1017.2
20260507194655 23 267 6.4 9.7 0.00 0.00 0.00 33 1017.4
20260507194151 23 243 4.8 9.7 0.00 0.00 0.00 32 1017.3
20260507193648 22 338 1.6 11.3 0.00 0.00 0.00 36 1017.6
20260507193145 23 249 1.6 6.4 0.00 0.00 0.00 35 1017.7
20260507192641 23 215 1.6 6.4 0.00 0.00 0.00 35 1017.8
20260507192138 23 186 1.6 4.8 0.00 0.00 0.00 34 1017.8
20260507191633 23 93 1.6 11.3 0.00 0.00 0.00 33 1018.0
20260507191130 23 244 3.2 12.9 0.00 0.00 0.00 35 1018.0
20260507190628 23 244 8.0 11.3 0.00 0.00 0.00 35 1018.0
20260507190127 22 273 1.6 1.6 0.00 0.00 0.00 36 1018.1
20260507185625 22 139 3.2 3.2 0.00 0.00 0.00 36 1018.1
20260507185121 22 262 0.0 6.4 0.00 0.00 0.00 38 1018.4
20260507184619 22 233 3.2 9.7 0.00 0.00 0.00 38 1018.3
20260507184117 22 266 3.2 14.5 0.00 0.00 0.00 38 1018.4
20260507183612 22 255 3.2 9.7 0.00 0.00 0.00 39 1018.7
20260507183110 21 265 3.2 6.4 0.00 0.00 0.00 39 1018.5
20260507182606 21 258 3.2 11.3 0.00 0.00 0.00 40 1018.7
20260507182102 21 168 4.8 11.3 0.00 0.00 0.00 38 1018.7
20260507181559 21 137 6.4 9.7 0.00 0.00 0.00 39 1018.9
20260507181055 21 270 1.6 14.5 0.00 0.00 0.00 41 1018.9
20260507180552 21 256 6.4 9.7 0.00 0.00 0.00 41 1018.7
20260507180049 21 242 0.0 4.8 0.00 0.00 0.00 41 1018.9
20260507175545 20 256 4.8 9.7 0.00 0.00 0.00 41 1019.2
20260507175043 21 60 1.6 4.8 0.00 0.00 0.00 42 1019.2
20260507174539 21 18 1.6 6.4 0.00 0.00 0.00 43 1019.2
20260507174037 20 259 4.8 4.8 0.00 0.00 0.00 44 1019.4
20260507173534 20 258 1.6 6.4 0.00 0.00 0.00 43 1019.7
20260507173031 20 280 6.4 9.7 0.00 0.00 0.00 41 1019.7
20260507172527 20 197 6.4 9.7 0.00 0.00 0.00 42 1019.9
20260507172024 19 50 3.2 9.7 0.00 0.00 0.00 45 1019.7
20260507171519 20 354 0.0 1.6 0.00 0.00 0.00 47 1020.0
20260507171017 20 243 1.6 4.8 0.00 0.00 0.00 43 1020.0
20260507170513 19 139 4.8 9.7 0.00 0.00 0.00 42 1020.3
20260507170010 19 206 3.2 9.7 0.00 0.00 0.00 43 1020.2
20260507165506 19 88 0.0 9.7 0.00 0.00 0.00 43 1020.3
20260507165003 19 28 1.6 4.8 0.00 0.00 0.00 45 1020.3
20260507164459 19 196 4.8 6.4 0.00 0.00 0.00 44 1020.5
20260507163956 18 97 3.2 4.8 0.00 0.00 0.00 44 1020.4
20260507163453 19 239 1.6 3.2 0.00 0.00 0.00 43 1020.7
20260507162950 18 283 3.2 9.7 0.00 0.00 0.00 46 1020.9
20260507162445 18 328 3.2 9.7 0.00 0.00 0.00 46 1020.7